Location: Unspecified
(0.0000°N, 0.0000°E)
Time: 11:51:30
(UTC+00:00)

Vanguard 3 - Pass Details

Date: 11 December 2017
Orbit: 508 x 3264 km, 33.3° (Epoch: 24 June)

Event Time Altitude Azimuth Distance (km) Brightness Sun altitude
Rises 21:42:50 0° 293° (WNW) 4,547 11.2 -50.8°
Reaches altitude 10° 21:45:24 10° 289° (WNW) 3,865 10.8 -51.3°
Enters shadow 21:51:33 42° 267° (W) 2,705 9.7 -52.4°
Maximum altitude 21:56:11 60° 212° (SSW) 2,620 - -53.3°
Exits shadow 22:04:49 33° 148° (SSE) 4,010 10.5 -54.9°
Drops below altitude 10° 22:14:01 10° 136° (SE) 6,057 11.5 -56.6°
Sets 22:19:17 0° 132° (SE) 7,206 12.0 -57.5°
